"Pseudo-MPEC" for C0J3UG5

Created 2023 Sep 26 16:22:03 UT using Find_Orb

Click here for an explanation of pseudo-MPECs

 
 Astrometry: 
     C0J3UG5* C2023 09 16.49221305 03 37.170+56 37 22.33   ~9GCq 22.52GVNEOCPV00
     C0J3UG5  C2023 09 16.49765505 03 38.819+56 37 26.00   ~9GCq 22.12GVNEOCPV00
     C0J3UG5  C2023 09 16.50462505 03 40.918+56 37 31.19   ~9GCq 22.37GVNEOCPV00
     C0J3UG5 KC2023 09 17.44720 05 08 26.37 +56 48 01.2    ~9HCb 22.1 GVNEOCP291
     C0J3UG5 KC2023 09 17.45343 05 08 28.28 +56 48 05.9    ~9HCb 21.7 GVNEOCP291
     C0J3UG5 KC2023 09 17.45967 05 08 30.05 +56 48 09.5    ~9HCb 23.3 GVNEOCP291
     C0J3UG5  C2023 09 19.47336005 18 45.439+57 08 29.72   ~9JCM 22.05GVNEOCPV00
     C0J3UG5  C2023 09 19.47885805 18 47.113+57 08 32.86   ~9JCM 22.05GVNEOCPV00
     C0J3UG5  C2023 09 19.48438405 18 48.816+57 08 36.20   ~9JCM 22.01GVNEOCPV00
     C0J3UG5  C2023 09 19.48988205 18 50.468+57 08 39.16   ~9JCM 21.99GVNEOCPV00
     C0J3UG5 mC2023 09 19.49158705 18 50.958+57 08 40.13   ~9JCM 21.58GVNEOCPV00
     C0J3UG5 mC2023 09 19.49269505 18 51.289+57 08 40.92   ~9JCM 22.15GVNEOCPV00
     C0J3UG5 mC2023 09 19.49365405 18 51.566+57 08 41.32   ~9JCM 22.15GVNEOCPV00
     C0J3UG5 mC2023 09 19.49461505 18 51.858+57 08 41.78   ~9JCM 21.78GVNEOCPV00
     C0J3UG5 KC2023 09 25.46297 05 49 51.77 +57 51 01.0    ~9PCb 21.7 RoNEOCP291
     C0J3UG5 KC2023 09 25.48993 05 50 00.13 +57 51 09.0    ~9PCb 20.7 RoNEOCP291

Station data:
(291) LPL/Spacewatch II  (N31.961669 W111.599905)  US/Arizona.  Observers J.
   V. Scotti, R. S. McMillan. 1.8-m f/2.7 reflector + CCD.
(V00) Kitt Peak-Bok  (N31.963125 W111.600190)  US/Arizona.  Observers T. A.
   Pruyne, B. M. Africano, E. J. Christensen, G. A. Farneth, D. C. Fuls, A.
   R. Gibbs, A. D. Grauer, H. Gröller, J. A. Johnson, R. A. Kowalski, S. M.
   Larson, G. J. Leonard, D. Rankin, R. L. Seaman, F. C. Shelly, K. W.
   Wierzchoś. 2.25-m reflector + 4x4K mosaic CCD.

Orbital elements:  C0J3UG5
   Perihelion 2023 Nov 14.56360 +/- 2.7 TT = 13:31:35 (JD 2460263.06360)
Epoch 2023 Sep 25.0 TT = JDT 2460212.5   Earth MOID: 0.3721      AutoNEOCP
M 344.95339646 +/- 3.2              (J2000 ecliptic)
n   0.29757775 +/- 0.0487           Peri.  140.49369 +/- 2.9
a   2.22195746 +/- 0.243            Node   293.73133 +/- 1.6
e   0.4134739 +/- 0.0529            Incl.   22.36512 +/- 0.42
P   3.31                   H 19.94  G  0.15   U 10.7
q 1.30323597 +/- 0.0247    Q 3.14067896 +/- 0.461
From 16 observations 2023 Sept. 16-25; mean residual 0".18
Residuals in arcseconds: 
230916 V00  .35-  .02-    230919 V00  .16-  .05+    230919 V00  .15-  .02-    
230916 V00  .03-  .16-    230919 V00  .05-  .01+    230919 V00  .13-  .11-    
230916 V00  .28+  .16+    230919 V00  .24+  .17+    230925 291  .18-  .09+    
230917 291  .04+  .18-    230919 V00  .18+  .02-    230925 291  .18+  .11-    
230917 291  .45+  .35+    230919 V00  .02-  .03-    
230917 291  .30-  .23-    230919 V00  .05-  .13+    

Ephemerides (geocentric):
Date (UTC) HH   RA             Dec           delta  r     elong  mag " sig PA
---- --------  ------------   ------------  ------ ------ -----  --- --------
2023 09 26 16  05 56 09.887   +57 56 08.94  .90442 1.3846  93.0 22.2 1.14  96
2023 09 26 17  05 56 22.998   +57 56 18.49  .90417 1.3845  93.0 22.2 1.13  96
2023 09 26 18  05 56 36.110   +57 56 27.96  .90392 1.3844  93.0 22.2 1.12  96
2023 09 26 19  05 56 49.222   +57 56 37.34  .90367 1.3842  93.0 22.2 1.11  97
2023 09 26 20  05 57 02.334   +57 56 46.65  .90341 1.3841  93.0 22.2 1.10  97
2023 09 26 21  05 57 15.447   +57 56 55.87  .90316 1.3840  93.0 22.2 1.09  98
2023 09 26 22  05 57 28.560   +57 57 05.01  .90291 1.3839  93.0 22.2 1.08  98
2023 09 26 23  05 57 41.672   +57 57 14.06  .90266 1.3837  93.0 22.2 1.07  99
2023 09 27 00  05 57 54.785   +57 57 23.04  .90241 1.3836  93.0 22.2 1.05  99
2023 09 27 01  05 58 07.898   +57 57 31.93  .90216 1.3835  93.0 22.2 1.04 100
2023 09 27 02  05 58 21.012   +57 57 40.74  .90191 1.3833  93.0 22.2 1.03 100
2023 09 27 03  05 58 34.125   +57 57 49.47  .90165 1.3832  93.0 22.2 1.02 101
2023 09 27 04  05 58 47.238   +57 57 58.11  .90140 1.3831  93.0 22.2 1.00 101
2023 09 27 05  05 59 00.352   +57 58 06.67  .90115 1.3829  93.0 22.2 .988 102
2023 09 27 06  05 59 13.465   +57 58 15.15  .90090 1.3828  93.0 22.2 .974 102
2023 09 27 07  05 59 26.579   +57 58 23.55  .90065 1.3827  93.0 22.2 .959 103
2023 09 27 08  05 59 39.692   +57 58 31.86  .90040 1.3826  93.0 22.2 .945 104
2023 09 27 09  05 59 52.805   +57 58 40.09  .90015 1.3824  93.0 22.2 .930 104
2023 09 27 10  06 00 05.919   +57 58 48.24  .89990 1.3823  93.1 22.2 .915 105
2023 09 27 11  06 00 19.032   +57 58 56.31  .89965 1.3822  93.1 22.2 .899 106
2023 09 27 12  06 00 32.145   +57 59 04.29  .89940 1.3820  93.1 22.2 .884 106
2023 09 27 13  06 00 45.259   +57 59 12.19  .89915 1.3819  93.1 22.2 .868 107
2023 09 27 14  06 00 58.372   +57 59 20.01  .89890 1.3818  93.1 22.2 .852 108
2023 09 27 15  06 01 11.484   +57 59 27.75  .89865 1.3816  93.1 22.2 .835 109
2023 09 27 16  06 01 24.597   +57 59 35.40  .89840 1.3815  93.1 22.2 .819 110
2023 09 27 17  06 01 37.710   +57 59 42.97  .89815 1.3814  93.1 22.2 .802 111
2023 09 27 18  06 01 50.822   +57 59 50.46  .89790 1.3813  93.1 22.2 .785 112
2023 09 27 19  06 02 03.934   +57 59 57.87  .89765 1.3811  93.1 22.2 .768 113
2023 09 27 20  06 02 17.046   +58 00 05.19  .89740 1.3810  93.1 22.2 .751 114
2023 09 27 21  06 02 30.158   +58 00 12.43  .89715 1.3809  93.1 22.2 .734 115
2023 09 27 22  06 02 43.269   +58 00 19.59  .89690 1.3807  93.1 22.2 .717 117
2023 09 27 23  06 02 56.381   +58 00 26.66  .89665 1.3806  93.1 22.2 .700 118
2023 09 28 00  06 03 09.491   +58 00 33.65  .89640 1.3805  93.1 22.2 .683 119
2023 09 28 01  06 03 22.602   +58 00 40.56  .89615 1.3804  93.1 22.2 .666 121
2023 09 28 02  06 03 35.712   +58 00 47.39  .89590 1.3802  93.1 22.2 .649 123
2023 09 28 03  06 03 48.822   +58 00 54.13  .89565 1.3801  93.1 22.2 .632 124
2023 09 28 04  06 04 01.932   +58 01 00.79  .89540 1.3800  93.1 22.2 .616 126
2023 09 28 05  06 04 15.041   +58 01 07.37  .89515 1.3798  93.1 22.2 .600 128
2023 09 28 06  06 04 28.149   +58 01 13.87  .89490 1.3797  93.1 22.2 .584 130
2023 09 28 07  06 04 41.258   +58 01 20.28  .89465 1.3796  93.1 22.2 .569 133
2023 09 28 08  06 04 54.365   +58 01 26.61  .89440 1.3795  93.2 22.2 .554 135
2023 09 28 09  06 05 07.473   +58 01 32.86  .89415 1.3793  93.2 22.2 .540 138
2023 09 28 10  06 05 20.579   +58 01 39.02  .89391 1.3792  93.2 22.2 .527 141
2023 09 28 11  06 05 33.686   +58 01 45.11  .89366 1.3791  93.2 22.2 .515 143
2023 09 28 12  06 05 46.792   +58 01 51.10  .89341 1.3789  93.2 22.2 .505 147
2023 09 28 13  06 05 59.897   +58 01 57.02  .89316 1.3788  93.2 22.2 .495 150
2023 09 28 14  06 06 13.002   +58 02 02.85  .89291 1.3787  93.2 22.2 .487 153
2023 09 28 15  06 06 26.106   +58 02 08.60  .89266 1.3786  93.2 22.2 .481 157